Theta_e
297 297 297 298 295 302 307 315 316 321 322 323 317 315 316 318 315 316 315 312 313 310 305 305 306 306 304 302 297 298 299 298 299 304 300 299 300 297 300 300 299 299 296 294 290 291 302 295 294 293 292 294 294 294
296 296 297 297 296 296 304 309 315 320 322 323 321 315 315 317 316 316 314 314 311 311 304 305 306 306 307 306 304 300 304 301 304 301 297 295 299 294 298 303 295 296 298 299 298 298 296 295 295 295 294 293 294 293
295 295 296 296 296 294 298 305 313 316 321 322 323 316 314 317 316 316 315 314 312 309 303 303 303 304 306 306 305 303 305 304 306 307 302 295 298 294 297 297 297 295 296 293 295 294 294 295 295 294 293 293 293 292
294 294 295 296 296 294 294 304 308 315 319 321 323 319 314 316 317 315 314 313 312 309 304 300 300 302 304 305 303 306 307 305 306 305 303 293 297 297 296 298 296 295 295 293 293 293 294 294 294 294 293 294 292 292
295 295 295 296 297 295 293 299 305 313 314 321 322 322 314 316 317 314 311 311 311 311 300 297 298 299 301 303 303 304 305 305 304 303 301 294 297 296 292 292 292 295 293 294 296 296 296 295 294 294 293 293 292 292
294 295 296 296 297 297 294 295 304 309 312 320 321 322 314 316 316 309 308 308 309 309 309 296 297 297 298 299 301 302 302 303 302 301 297 296 296 297 290 294 298 299 299 299 299 296 297 296 295 293 293 292 293 292
293 293 295 295 296 297 297 294 301 308 313 317 320 322 314 315 311 308 309 310 309 308 310 294 295 296 297 298 299 299 300 301 301 299 297 295 295 299 288 294 301 299 298 298 298 297 295 295 293 294 292 292 292 291
293 293 294 295 295 297 296 293 300 307 312 315 319 319 313 309 306 307 311 312 307 309 308 291 288 296 296 297 297 298 298 300 299 297 296 296 293 294 291 298 298 297 297 297 297 297 296 294 293 293 292 292 292 291
292 294 294 294 295 296 298 293 299 306 311 313 315 313 307 304 304 306 308 308 307 308 306 296 295 295 295 296 296 297 299 295 297 297 295 295 288 291 298 299 297 297 298 297 296 295 294 294 293 292 292 292 291 290
291 292 294 295 295 297 298 293 298 306 309 312 312 305 303 304 305 305 305 306 306 308 306 298 296 292 297 296 295 298 298 290 292 293 294 289 292 301 301 301 301 298 298 296 295 293 294 294 293 292 292 292 291 290
292 292 293 294 297 298 298 293 297 305 306 310 305 305 305 305 306 307 306 304 305 301 301 297 296 293 297 296 294 296 291 287 294 294 292 292 294 297 303 301 299 299 298 297 297 297 294 294 293 293 292 292 290 290
291 292 293 293 298 298 298 297 300 303 306 308 306 303 303 307 308 306 304 301 301 304 298 296 298 299 299 300 299 295 291 290 296 291 289 295 296 302 301 300 298 298 297 296 295 295 294 294 293 293 292 291 290 290
292 292 292 293 297 298 298 299 301 301 306 307 304 302 301 305 308 309 308 304 302 296 296 297 295 300 299 298 296 292 291 295 292 289 295 296 300 301 301 299 297 297 296 296 294 294 294 293 293 292 292 290 290 290
291 292 292 293 296 299 298 300 301 302 307 304 301 303 302 307 306 304 309 303 304 301 298 300 297 299 297 295 293 295 288 291 291 295 299 298 302 301 300 299 298 297 296 295 294 294 294 293 293 292 292 290 290 289
291 292 292 296 299 300 300 300 300 302 303 301 303 306 306 306 304 309 311 307 302 300 301 299 297 299 294 293 288 288 288 292 296 300 297 305 304 302 300 299 298 296 295 295 294 294 294 294 293 292 291 290 290 289
291 291 294 298 299 300 300 299 299 300 302 302 303 308 305 302 297 302 306 300 300 300 304 305 292 292 289 291 289 297 299 301 301 294 305 304 304 301 300 299 298 296 296 295 294 294 294 294 293 292 290 290 290 289
291 291 293 295 297 298 299 299 299 300 301 301 306 309 308 306 305 303 305 300 301 303 306 298 301 302 290 289 294 296 300 302 305 305 306 306 306 303 300 299 297 296 295 295 294 294 294 293 292 291 290 290 290 289
290 291 292 294 296 297 299 299 300 299 299 301 305 309 309 308 308 303 304 304 302 307 305 304 297 291 297 299 299 298 302 305 306 307 308 306 305 303 303 300 297 296 296 295 294 294 293 293 292 291 290 290 290 289
290 291 292 293 295 296 299 299 299 299 300 304 306 310 309 310 308 309 309 303 306 309 307 303 299 299 298 299 302 306 307 308 307 305 306 305 305 305 302 299 297 296 295 294 294 293 293 293 293 291 290 290 290 289
290 291 292 293 295 296 297 299 299 300 300 303 307 308 309 307 307 305 301 304 306 306 306 298 299 304 309 312 312 313 312 310 310 303 301 301 302 302 300 299 298 296 295 294 293 293 293 292 292 291 290 290 290 289
291 291 292 293 295 296 296 297 299 299 303 304 306 308 303 302 302 301 301 303 305 307 302 308 312 313 312 313 312 312 311 312 313 314 311 302 301 299 298 298 297 296 295 294 293 293 293 292 291 291 290 290 289 289
291 292 293 295 295 296 295 298 298 300 299 301 302 306 300 300 300 301 302 301 304 311 311 311 313 313 312 311 312 311 312 311 310 310 308 308 303 299 298 298 297 296 295 294 293 293 292 292 291 291 290 290 289 289
292 292 294 295 295 295 295 296 297 298 299 299 301 300 299 300 301 302 300 302 305 310 311 312 313 313 313 312 311 309 310 311 310 309 310 309 306 302 300 299 298 297 295 294 293 293 293 292 291 290 290 289 289 289
291 293 294 294 295 294 293 293 294 295 296 298 302 297 296 297 298 297 301 300 306 307 310 311 312 311 308 307 309 309 308 308 308 308 309 310 306 303 302 301 299 298 297 295 293 293 292 292 290 290 289 289 289 289
293 294 294 293 293 291 291 291 293 294 297 296 296 294 295 297 298 299 302 305 306 306 307 310 312 312 312 308 306 305 305 308 310 310 308 308 307 302 299 298 297 297 296 295 293 292 292 291 290 289 289 289 289 289
294 294 293 291 289 290 291 292 293 296 295 294 296 294 293 297 302 304 305 309 307 306 305 307 309 307 307 310 310 306 307 308 309 310 310 310 310 310 307 302 298 296 296 295 294 292 292 291 290 289 289 289 289 289
294 293 292 292 292 292 293 294 296 295 296 295 293 293 295 303 306 302 309 312 311 310 309 309 311 312 313 311 309 308 307 309 309 311 312 311 309 309 312 310 308 306 300 296 293 293 292 291 290 289 289 289 289 289
294 291 291 291 292 293 294 295 296 297 298 295 294 296 303 308 308 306 311 312 313 315 310 310 308 306 310 312 312 310 307 305 304 305 305 304 304 305 305 305 304 304 300 296 294 292 292 291 289 289 289 288 289 289
291 294 293 291 291 293 294 296 299 301 300 294 300 298 299 307 308 310 312 313 313 313 310 308 307 305 306 307 308 311 311 309 307 304 304 304 302 302 302 302 303 301 298 295 293 292 291 290 289 289 289 288 289 289
287 293 292 290 290 293 296 298 299 300 301 300 298 296 297 300 307 311 310 311 312 312 311 310 309 307 307 307 305 305 308 309 313 313 310 308 311 308 305 303 301 300 298 294 292 291 290 289 289 288 288 288 288 289
292 292 289 293 293 295 296 298 298 295 297 297 299 293 294 296 302 306 308 310 309 306 305 305 307 308 309 307 307 305 302 305 307 308 309 309 309 309 307 304 301 300 296 293 291 290 289 288 288 288 288 288 289 289
292 292 293 287 289 291 293 293 293 293 293 293 293 292 293 293 294 303 303 304 303 303 304 306 305 306 310 312 313 310 312 308 306 304 304 306 307 307 304 301 298 297 294 292 291 290 288 288 288 288 288 289 289 289
291 292 294 291 291 291 291 292 290 289 289 290 290 291 292 293 294 302 304 304 304 304 303 305 306 305 308 307 308 304 303 305 306 304 302 302 304 304 303 299 297 295 293 291 290 289 288 288 288 288 288 289 289 289
Wind_Speed
15 15 16 20 15 15 19 25 13 27 26 23 22 23 22 19 16 16 18 14 8 4 15 12 9 11 12 11 5 16 8 4 2 2 3 4 3 5 1 2 4 5 5 3 3 3 4 13 8 5 5 6 3 1
17 17 18 20 18 15 17 23 21 22 28 24 24 24 24 21 18 17 16 17 14 5 9 12 11 13 12 13 10 29 1 8 13 4 0 4 2 2 3 2 1 1 6 4 7 4 2 20 3 8 6 7 4 2
18 19 19 19 20 18 18 20 29 17 29 24 25 24 26 23 20 18 19 16 16 8 8 11 9 11 12 13 13 9 7 10 8 5 8 3 3 4 4 5 3 3 5 2 2 3 11 13 10 8 6 6 4 3
15 17 18 18 19 20 16 19 27 25 24 27 24 25 27 25 22 20 21 18 20 8 7 5 9 10 11 14 15 10 7 13 11 8 3 3 3 7 4 3 3 4 10 5 3 3 9 11 11 12 9 7 4 3
14 16 17 17 19 21 19 22 22 34 17 28 24 26 29 27 23 20 21 21 23 9 7 8 11 7 8 10 13 9 11 14 12 4 2 2 5 5 2 2 3 13 8 5 5 18 7 15 19 15 12 8 5 3
15 16 17 18 18 20 23 19 23 28 24 26 25 26 30 28 24 21 11 21 27 16 4 3 6 9 9 9 11 13 14 12 5 3 4 4 4 2 3 4 5 21 14 8 5 21 6 19 20 15 13 9 6 2
17 18 18 21 19 21 23 20 25 24 29 24 27 27 31 28 24 24 8 10 31 22 6 8 3 9 13 13 11 10 11 7 3 4 2 4 4 5 2 4 6 20 15 13 14 24 22 25 18 18 13 10 6 2
19 22 20 24 22 22 26 22 27 25 33 21 27 30 31 26 31 28 10 7 33 21 7 6 1 6 14 6 7 7 5 6 4 4 4 3 7 2 3 12 13 21 20 19 24 13 14 22 23 20 15 10 7 3
21 24 24 25 26 25 26 25 28 25 25 25 25 35 30 27 20 29 17 10 32 10 9 7 8 5 16 7 5 6 5 2 3 3 4 6 0 4 9 20 30 33 26 27 23 13 20 23 24 21 16 12 7 5
25 25 24 26 29 26 26 25 28 25 11 23 35 21 12 21 19 22 13 15 12 8 6 5 10 3 13 7 4 6 3 2 2 3 7 3 4 22 14 15 28 34 24 31 29 27 27 27 25 22 16 12 8 5
24 26 26 27 26 26 26 25 30 24 31 39 16 9 27 33 21 13 9 9 11 4 11 9 8 9 12 5 5 5 4 2 3 3 5 3 4 10 25 24 32 33 26 25 22 18 25 23 26 24 19 13 9 6
25 26 27 27 17 19 27 26 29 24 35 37 16 19 39 15 9 7 6 5 5 9 14 18 14 10 11 9 6 8 3 2 4 12 3 4 5 12 30 33 37 34 28 26 23 23 25 23 22 20 17 14 11 6
25 26 30 32 19 23 30 29 29 26 33 33 14 11 9 9 6 14 14 5 6 14 18 22 11 12 9 6 7 5 4 4 18 2 4 6 5 21 34 37 38 33 29 28 26 27 26 25 22 19 17 13 10 7
25 28 33 37 20 27 27 29 29 31 33 11 12 7 6 7 8 6 9 9 12 22 39 37 16 8 7 5 6 6 2 4 1 3 7 4 25 33 37 39 40 39 34 33 32 31 29 27 24 19 15 12 9 7
23 27 32 25 16 29 26 26 24 35 13 10 9 6 8 9 2 21 32 32 23 45 52 22 14 8 4 5 3 5 3 6 7 6 4 15 34 42 43 42 42 41 39 37 35 34 31 28 25 22 18 14 10 7
22 27 22 10 14 20 21 23 23 23 7 9 11 5 3 3 1 15 34 21 37 46 39 13 7 5 3 7 5 9 10 8 5 6 14 26 43 46 45 44 42 42 41 39 37 34 32 29 26 22 20 15 12 8
20 23 22 17 4 15 18 19 23 11 10 7 6 17 17 5 14 15 29 30 47 48 10 7 7 7 8 3 3 6 7 5 11 19 22 36 47 48 45 43 43 43 42 40 37 35 32 29 26 25 22 18 14 11
22 23 18 18 13 8 18 22 16 7 7 9 5 12 22 8 24 21 23 55 35 31 26 8 14 4 8 10 5 6 14 12 14 25 31 41 46 45 43 44 43 43 41 40 37 35 34 33 30 26 22 19 16 12
24 20 15 18 18 14 8 12 15 5 12 6 21 13 15 16 27 38 46 53 35 45 20 13 5 6 5 9 10 28 29 28 31 31 36 41 42 42 42 42 41 42 41 41 40 38 36 32 29 27 24 20 17 13
24 20 17 18 16 8 5 7 17 14 6 8 17 17 9 10 25 33 36 38 43 26 8 5 5 8 19 22 22 38 39 40 44 40 38 40 41 41 42 43 44 43 42 40 39 37 35 32 29 27 24 21 19 15
23 20 17 16 18 15 6 5 8 8 8 8 17 27 7 17 17 16 28 33 18 16 6 16 26 21 28 27 28 39 45 49 54 51 53 48 44 43 43 42 43 43 45 45 44 41 38 36 33 30 27 23 19 16
24 16 15 15 8 9 7 7 6 3 4 5 19 21 11 4 12 18 19 20 12 33 22 27 35 34 26 27 28 36 47 53 52 50 51 50 51 48 47 47 47 48 48 48 46 44 41 37 33 31 28 25 21 18
22 19 14 10 10 14 5 11 8 7 3 6 14 6 4 6 15 24 8 12 13 37 35 35 36 38 34 30 32 39 49 55 53 48 51 49 48 47 48 48 47 48 49 48 45 44 41 37 34 31 29 26 23 21
22 10 8 11 13 5 6 7 6 5 0 3 6 5 5 6 19 5 5 8 24 23 40 39 43 40 32 33 37 42 50 54 51 48 48 48 47 46 46 46 46 45 44 44 46 43 41 40 36 34 31 29 26 23
10 13 9 6 11 5 4 4 4 3 4 2 2 3 4 11 5 6 5 11 26 31 40 46 49 51 49 43 42 46 51 55 53 51 49 46 46 46 45 44 45 45 44 45 47 45 44 41 39 36 33 30 28 25
10 15 13 10 6 6 7 6 7 7 4 3 5 8 9 4 5 7 10 30 39 42 50 54 56 50 47 50 50 51 53 56 54 51 50 49 48 45 47 49 48 48 45 44 45 47 46 43 40 38 35 32 28 25
7 6 8 9 10 9 5 4 6 3 6 7 4 8 7 7 9 5 23 51 50 47 54 56 59 60 56 53 49 45 55 60 57 52 51 49 46 43 39 40 42 43 46 47 47 48 47 45 42 39 36 32 29 26
7 13 8 12 7 13 5 5 7 9 6 6 4 8 11 8 8 15 24 51 55 63 56 59 52 43 54 52 50 48 56 59 52 43 40 48 48 46 43 37 32 32 42 46 47 46 44 42 42 39 37 33 30 27
7 17 14 7 5 5 6 8 5 10 12 12 4 4 5 11 15 23 31 49 51 50 63 64 55 47 45 48 53 54 59 65 60 50 46 50 49 47 43 40 35 33 42 46 45 43 41 39 38 36 34 32 29 27
10 31 15 8 8 10 12 20 18 23 17 19 12 10 9 14 22 25 38 50 58 61 64 69 67 62 57 57 59 60 62 68 66 60 57 55 56 52 50 45 43 38 42 47 47 43 37 37 36 36 36 34 31 29
20 23 7 13 10 31 33 38 26 16 19 16 18 12 9 4 20 31 46 49 52 52 55 63 69 68 68 65 66 68 64 68 66 60 52 48 52 55 52 50 48 44 48 51 50 48 47 44 41 39 38 36 33 31
22 16 13 9 6 11 17 17 15 11 9 6 4 10 10 6 9 28 46 48 49 50 57 67 72 75 76 74 71 70 70 68 70 64 60 52 46 50 51 50 50 49 52 54 52 50 47 45 43 42 40 37 34 32
8 13 18 6 4 5 10 10 6 4 3 5 7 12 14 11 7 24 44 52 54 54 57 65 64 61 70 69 67 63 54 56 60 63 60 51 43 44 49 52 52 52 54 54 53 51 49 47 44 42 40 37 34 30
Wind_Direction
285 291 295 300 275 256 243 216 225 209 210 211 213 209 205 209 212 206 207 203 195 139 157 175 163 158 159 163 142 155 118 206 88 126 133 196 151 217 136 170 187 177 144 198 82 57 314 155 129 171 170 138 148 26
276 281 285 288 286 263 256 231 222 206 207 210 212 210 206 207 210 210 211 207 207 182 153 170 174 178 187 174 147 168 151 165 177 102 177 114 135 128 151 241 53 262 184 182 175 214 146 172 161 157 156 153 150 41
275 277 283 286 288 276 248 247 214 227 201 205 212 210 205 206 207 211 214 209 195 159 134 156 164 172 177 183 173 165 198 177 192 173 153 151 133 133 155 235 169 246 188 159 67 188 169 173 160 163 154 144 129 44
288 291 290 287 283 284 265 249 233 219 203 202 213 208 203 205 207 212 215 207 197 161 124 165 179 178 189 187 186 183 178 176 168 159 125 128 135 191 190 170 173 190 156 167 252 177 168 191 188 172 161 154 121 86
285 288 290 288 283 282 274 239 247 221 225 201 209 208 201 203 205 209 212 209 204 197 141 133 155 160 179 191 197 200 177 170 161 151 102 175 135 139 91 86 241 189 178 170 216 183 169 192 180 173 168 154 130 97
285 284 290 290 278 279 278 251 242 228 225 205 204 208 200 202 202 192 201 214 210 208 151 120 156 161 156 160 176 174 170 166 164 131 119 139 159 174 117 204 238 193 193 175 161 166 149 154 162 169 164 150 137 98
287 291 283 291 284 271 269 259 235 229 219 213 202 205 198 200 196 179 192 189 196 197 189 103 125 162 162 152 151 152 163 154 142 115 125 148 153 178 109 211 197 187 188 182 159 154 137 158 166 167 162 154 147 93
296 297 286 279 292 276 265 254 228 231 213 225 201 195 193 187 185 195 180 173 182 177 184 117 295 153 170 154 136 158 161 148 125 129 141 162 147 173 255 222 173 169 169 169 167 180 178 162 159 162 164 158 156 142
298 297 295 278 288 272 265 247 225 225 216 225 211 180 169 180 190 200 194 171 174 183 169 145 148 192 167 135 130 149 151 75 155 139 171 168 258 227 227 187 178 174 174 171 172 174 162 163 161 165 165 161 166 135
292 292 296 276 284 270 254 235 222 220 224 214 184 160 176 182 168 173 156 174 180 219 189 110 133 153 164 142 142 130 133 150 156 225 152 143 254 245 225 206 192 180 178 175 162 160 165 165 169 169 166 162 162 135
290 296 295 284 274 262 237 220 215 213 177 176 170 199 148 148 146 170 165 170 186 186 179 145 154 134 165 130 143 184 160 182 133 226 147 239 269 230 202 189 187 184 185 187 192 182 179 175 168 168 168 165 158 142
295 300 295 282 278 248 225 211 216 214 180 182 175 154 146 163 170 148 177 152 197 193 160 144 149 130 142 153 121 166 128 89 206 142 96 254 246 195 177 180 180 183 184 182 181 175 172 172 170 169 167 165 157 151
300 301 306 284 275 230 214 203 217 212 186 169 162 195 213 165 168 176 183 201 149 161 156 154 135 141 136 148 104 123 110 182 131 78 226 229 199 177 175 176 176 181 181 178 174 175 172 170 172 174 170 168 160 152
303 309 304 287 288 204 197 208 220 208 187 173 166 212 225 178 219 186 163 141 149 162 154 145 127 133 136 120 140 110 227 122 93 234 229 229 193 176 176 177 175 178 180 179 177 176 175 174 173 174 177 171 166 158
304 304 301 301 191 189 201 216 221 203 200 186 176 216 227 246 145 155 157 145 154 153 147 126 97 117 124 113 101 114 72 222 212 224 226 203 179 173 176 178 181 178 179 181 179 178 177 176 177 176 176 175 171 169
306 304 301 359 195 199 209 213 225 223 225 209 206 220 235 123 240 145 151 140 154 154 150 147 118 104 181 136 133 205 149 214 223 215 202 176 174 176 177 180 183 182 181 180 180 180 178 180 181 178 176 178 175 174
299 291 307 315 20 218 218 208 205 230 218 215 221 227 194 220 186 160 156 151 158 153 167 136 132 180 112 114 214 190 203 197 202 189 184 179 175 177 179 180 184 184 182 181 180 181 182 180 180 182 182 180 180 178
282 287 294 295 327 267 208 200 198 264 221 207 219 221 200 203 185 167 162 160 157 176 168 177 129 153 173 175 222 198 200 186 177 178 174 175 177 178 181 181 183 185 184 182 183 182 182 182 185 185 183 183 183 183
282 282 286 282 305 275 192 190 185 255 234 208 217 227 187 196 198 184 174 167 170 173 161 156 146 179 195 209 174 176 179 174 169 171 174 176 178 180 182 183 183 185 186 184 185 185 186 188 187 184 185 187 189 186
278 266 267 267 282 241 250 184 175 210 260 226 206 192 180 175 188 185 168 168 168 161 170 189 180 192 178 195 188 188 182 177 168 160 167 176 181 184 185 184 184 185 185 186 187 188 186 185 186 188 190 190 190 189
275 256 262 255 252 219 258 201 181 219 219 211 193 173 141 152 145 165 181 175 173 194 213 191 189 188 185 191 190 189 181 177 175 176 174 175 182 186 184 186 187 185 186 187 189 189 190 188 185 187 191 192 188 189
265 262 258 251 232 214 240 223 222 215 243 222 176 185 133 187 157 175 186 210 225 199 199 187 184 189 188 188 184 190 187 179 178 181 175 174 176 183 187 189 188 189 191 192 191 190 190 190 189 189 192 191 191 192
260 254 245 213 214 199 239 197 205 180 234 196 161 136 156 169 175 154 186 233 229 205 198 189 189 191 196 190 188 187 189 185 184 183 178 177 181 183 186 189 192 192 192 194 194 192 190 188 190 191 191 193 194 194
241 221 221 204 201 193 196 199 189 191 194 244 168 154 168 130 147 163 211 223 212 192 188 187 182 180 181 183 184 188 188 189 185 182 181 181 182 186 191 191 193 197 199 193 192 192 190 188 189 190 194 195 195 197
229 194 227 196 176 141 202 178 176 176 179 259 171 142 184 159 164 189 209 197 200 194 182 186 184 191 187 187 186 187 188 190 186 184 185 185 184 184 188 193 196 199 199 195 192 191 190 190 191 193 194 195 194 194
200 206 189 184 166 165 184 182 185 186 159 171 248 136 185 177 176 213 195 188 198 194 189 188 185 183 188 194 186 187 187 187 190 189 186 188 194 191 187 189 193 198 202 200 194 190 190 191 193 194 194 193 194 195
205 177 175 182 175 166 185 216 171 155 177 202 226 173 186 187 203 228 176 193 196 201 196 193 194 194 193 194 191 191 189 187 192 194 191 193 195 199 201 193 196 198 195 194 195 195 191 190 193 194 192 191 193 194
194 166 161 181 206 201 180 180 179 183 202 176 237 201 179 191 217 179 182 190 195 200 197 198 198 197 197 194 193 193 190 188 190 193 196 192 195 201 203 202 203 203 195 193 193 194 195 193 192 192 192 193 192 192
178 188 173 177 195 194 219 197 209 200 189 160 252 208 220 208 176 177 180 186 190 197 193 196 195 197 199 195 193 195 196 192 189 190 194 195 196 202 203 202 198 197 195 192 191 191 193 194 195 194 193 193 191 190
214 196 189 184 181 205 213 205 222 225 212 215 236 279 229 190 176 170 175 183 189 194 196 195 195 197 197 197 193 191 198 200 200 201 199 202 205 204 199 196 193 191 190 189 184 182 188 192 193 192 192 191 189 190
203 184 197 201 212 214 215 216 216 209 209 218 228 263 263 220 179 181 181 187 193 190 186 188 195 199 201 200 200 195 195 202 203 203 207 209 207 203 200 193 188 184 184 183 180 182 186 188 189 189 189 188 189 192
182 190 190 188 222 207 196 182 180 181 176 163 199 229 216 231 206 176 188 185 188 189 193 194 193 198 202 204 204 205 210 205 202 202 205 207 208 206 198 189 183 181 180 180 181 184 185 184 185 187 187 189 190 191
184 195 194 141 148 182 186 154 146 138 158 187 197 225 209 205 213 189 188 193 195 194 194 201 200 200 202 204 207 205 204 207 208 204 205 207 205 198 192 187 181 179 178 179 183 183 184 185 185 186 188 188 188 188